Regional Weather Roundup
Issued by NWS

Home | Current Version | Previous Version | Graphics & Text | Print | Product List | Glossary On
Versions: 1 2 3 4 5 6 7 8 9 10 11 12 13 14 15 16 17 18 19 20 21 22 23 24 25 26 27 28 29 30 31 32 33 34 35 36 37 38 39 40 41 42 43 44 45 46 47 48 49 50
000
ASUS43 KLSX 241810
RWRMO

WEATHER SUMMARY FOR MISSOURI
NATIONAL WEATHER SERVICE SPRINGFIELD MO
100 PM CDT SAT SEP 24 2016

NOTE: "FAIR" INDICATES FEW OR NO CLOUDS BELOW 12,000 FEET WITH NO
       SIGNIFICANT WEATHER AND/OR OBSTRUCTIONS TO VISIBILITY.
       CURRENT SKY AND/OR WEATHER CONDITIONS ARE NOT AVAILABLE FOR
       CHILLICOTHE AND FARMINGTON.

MOZ001>031-035>038-043-044-053-054-241900-
...NORTHERN AND WESTERN MISSOURI...

CITY           SKY/WX    TMP DP  RH WIND       PRES   REMARKS
KANSAS CTY INT MOSUNNY   86  71  60 S15       30.02F HX  91
6HR MIN TEMP:  70; 6HR MAX TEMP:  86;

KANSAS C DTWN  MOSUNNY   89  70  53 S13       30.01F HX  94
6HR MIN TEMP:  73; 6HR MAX TEMP:  89;

LEE`S SUMMIT   PTSUNNY   85  70  60 S10       30.04F
6HR MIN TEMP:  70; 6HR MAX TEMP:  86;

ST JOSEPH      PTSUNNY   87  71  58 S17G23    29.99F HX  93
6HR MIN TEMP:  70; 6HR MAX TEMP:  88;

CHILLICOTHE      N/A     86  72  62 SE8       30.05F HX  92
6HR MIN TEMP:  69; 6HR MAX TEMP:  87;

KIRKSVILLE     SUNNY     85  68  56 S8        30.09S
6HR MIN TEMP:  62; 6HR MAX TEMP:  86;


$$
MOZ066>068-077>081-088>096-101>105-241900-
...SOUTHWEST MISSOURI...

CITY           SKY/WX    TMP DP  RH WIND       PRES   REMARKS
SPRINGFIELD    MOSUNNY   88  67  49 VRB7      30.08F HX  91
6HR MIN TEMP:  69; 6HR MAX TEMP:  88;

JOPLIN         MOSUNNY   87  71  58 S13       30.06F HX  93
6HR MIN TEMP:  72; 6HR MAX TEMP:  87;

BRANSON        PTSUNNY   88  68  51 SE7       30.10F HX  91

$$
MOZ032>034-039>042-045>050-055>058-069>072-241900-
...CENTRAL MISSOURI...

CITY           SKY/WX    TMP DP  RH WIND       PRES   REMARKS
COLUMBIA       SUNNY     86  70  58 S6        30.09F HX  90
6HR MIN TEMP:  67; 6HR MAX TEMP:  86;

JEFFERSON CITY SUNNY     86  70  58 VRB7      30.07F HX  90
6HR MIN TEMP:  64; 6HR MAX TEMP:  87;

ROLLA          SUNNY     84  69  60 SW6       30.10F
6HR MIN TEMP:  67; 6HR MAX TEMP:  86;

SEDALIA        MOSUNNY   88  72  58 S8        30.08F HX  94
6HR MIN TEMP:  67; 6HR MAX TEMP:  88;

WHITEMAN AFB   MOSUNNY   87  74  63 S9        30.04F HX  95
OSAGE BEACH    MOSUNNY   87  71  58 VRB7      30.08F HX  93

$$
MOZ051-052-059>065-241900-
...EAST CENTRAL MISSOURI...

CITY           SKY/WX    TMP DP  RH WIND       PRES   REMARKS
ST LOUIS INTL  PTSUNNY   88  66  48 SE7       30.10F HX  90
6HR MIN TEMP:  74; 6HR MAX TEMP:  90;

SPIRIT OF STL  MOSUNNY   88  66  48 CALM      30.08F HX  90
6HR MIN TEMP:  65; 6HR MAX TEMP:  89;

ST CHARLES     SUNNY     88  67  49 S5        30.08F HX  91
6HR MIN TEMP:  65; 6HR MAX TEMP:  88;


$$
MOZ072>076-082>087-097>100-106>115-241900-
...SOUTH CENTRAL AND SOUTHEAST MISSOURI...

CITY           SKY/WX    TMP DP  RH WIND       PRES   REMARKS
CAPE GIRARDEAU SUNNY     88  68  51 SW5       30.08F HX  91
6HR MIN TEMP:  67; 6HR MAX TEMP:  89;

FARMINGTON     PTSUNNY   86  69  56 SW7       30.12F HX  90
6HR MIN TEMP:  63; 6HR MAX TEMP:  87;

WEST PLAINS    SUNNY     86  65  49 VRB6      30.13F
6HR MIN TEMP:  63; 6HR MAX TEMP:  86;


$$



USA.gov is the U.S. government's official web portal to all federal, state and local government web resources and services.